STARLINK-6131, 57107

Orbit data source: Space-Track

STARLINK-6131, 57107 is a payload satellite owned by SpaceX/Seattle (US) in LEO that was launched on Fri, 23 Jun 2023 UTC via an FALCON 9 launch vehicle from the Air Force Eastern Test Range (AFETR). Payload-class satellites include a variety of spacecraft equipped with specific instruments for various scientific and technological missions. These include communications satellites like Starlink; space stations such as the ISS; scientific satellites like the Hubble; Earth observation satellites from companies like Planet Labs, Umbra, and HawkEye 360; GPS; miniature CubeSats for education and research; and military/defense satellites.

Loading next visibility...
Identifier
57107, 2023-090G
Orbit
LEO
Country
Flag of USUS
Related business
Manufacturer
SpaceX/Seattle
Mission
Operational Commercial Communications
Bus & Motor
STARLINK, Unknown motor
Mass
305 kg wet, ~290 kg dry
Launch date (UTC)
2023-06-23 (3 years ago)
Launch vehicle
FALCON 9
Launch site
Air Force Eastern Test Range (AFETR)
Object type
Payload
Rocket body
Debris
Shape & HBR
Box + 1 Pan, 10.1 m
Radar Cross Section
11.087 m², Large (>1 m²)

Expand to show TLE details & history
Last TLE update: 2 days ago

TLE from 2 days ago
0 STARLINK-6131
1 57107U 23090G   26171.39909580 -.00000261  00000-0  44480-7 0  9991
2 57107  43.0045  61.2322 0001188 264.7984  95.2732 15.27576553166043
Epoch: 2026-06-20T09:34Z
TLE epoch observation values (Epoch: 2026-06-20T09:34:41.877Z)
Latitude
-0.00001°
Longitude
8.94342°
Altitude
482.91 km
Speed
7.626 km/s
True Right ascension
04h 04m 55s
True Declination
0° 00' 00"
Sunlit
Object was in daylight at epoch
Visualization orbit readout
Latitude
Unknown
Longitude
Unknown
Altitude
Unknown
Speed
Unknown
Apparent Right ascension
Unknown
Apparent Declination
Unknown
Sunlit
N/A
Visualization observer readout
Local Sidereal Time
21:32:05
Azimuth
Unknown
Elevation
Unknown
Doppler factor
Unknown
Orbital elements
Apogee altitude
485.819 km
Perigee altitude
484.188 km
Semi-major axis
6,863.141 km
Eccentricity
0.00012
Inclination
43.0045°
RAAN
61.2322°
Arg. of periapsis
264.7984°
True anomaly
95.28676°
Mean anomaly
95.2732°
Eccentric anomaly
95.27998°
Mean motion
3.81732 °/min
Orbital period
94.31 mins
BSTAR
4.448e-8
Loading maneuver chart data...
Computing Atmospheric mass density...
Loading historical data...
Loading historical data...
Loading historical data...
Loading historical data...
Loading historical data...
Loading historical data...
Loading historical data...

Documentation

Showing up to 5 results
|